Tracking 19800 objects as of 24-Jul-2019
HD Live streaming from Space Station
objects crossing your sky now

NOAA 16 DEB

Track NOAA 16 DEB now!
10-day predictions


NORAD ID: 42387
Int'l Code: 2000-055SF
Perigee: 832.6 km
Apogee: 858.9 km
Inclination: 98.9 °
Period: 101.7 minutes
Semi major axis: 7216 km
RCS: Unknown
Launch date: September 21, 2000
Source: United States (US)
Launch site: AIR FORCE WESTERN TEST RANGE (AFWTR)

Note: This is SATELLITE DEBRIS
aabbcc
Your satellite tracking list
Your tracking list is empty




NASA's NSSDC Master Catalog

Two Line Element Set (TLE):
1 42387U 00055SF  19203.01662153  .00000586  00000-0  31862-3 0  9995
2 42387  98.8598 284.8476 0018230 329.4056  30.6054 14.16088103176661
Source of the keplerian elements: AFSPC